Sigfox identifier Datetime Temperature Humidity SNR
003B7675 2018-10-09 09:19:42 20.7 40 18.9
003B7675 2018-10-09 08:11:49 20.6 39 19
003B7675 2018-10-09 07:03:56 20.6 39 19
003B7675 2018-10-09 05:56:04 20.6 39 19.1
003B7675 2018-10-09 04:48:13 20.6 38 19.1
003B7675 2018-10-09 01:24:36 20.6 38 19.1
003B7675 2018-10-09 00:16:45 20.6 38 16.3
003B7675 2018-10-08 23:08:45 20.6 38 16.6
003B7675 2018-10-08 22:00:53 20.6 37 16.8
003B7675 2018-10-08 20:52:54 20.6 37 16.7
003B7675 2018-10-08 19:45:01 20.6 37 16.3
003B7675 2018-10-08 18:37:09 20.6 37 16.3
003B7675 2018-10-08 17:29:17 20.6 37 15.8
003B7675 2018-10-08 16:21:28 20.6 37 15.7
003B7675 2018-10-08 14:05:35 20.6 36 15.6
003B7675 2018-10-08 12:57:37 20.4 36 15.6
003B7675 2018-10-08 11:49:40 20.3 35 15.2
003B7675 2018-10-08 10:41:44 20.2 33 15.7
003B7675 2018-10-08 09:33:47 20.1 32 15.6
003B7675 2018-10-08 08:25:50 20.2 33 15.7
003B7675 2018-10-08 07:17:53 20.2 34 15.6
003B7675 2018-10-08 06:09:55 20.2 34 15.6
003B7675 2018-10-08 05:01:57 20.2 35 18.6
003B7675 2018-10-08 03:54:03 20.2 35 18.7
003B7675 2018-10-08 02:46:09 20.2 36 18.4
003B7675 2018-10-08 01:38:17 20.2 36 18.4
003B7675 2018-10-08 00:30:23 20.2 36 18.4
003B7675 2018-10-07 23:22:28 20.3 37 18.4
003B7675 2018-10-07 22:14:36 20.4 37 18.5
003B7675 2018-10-07 21:06:41 20.4 38 18.3
003B7675 2018-10-07 19:58:46 20.4 38 18.2
003B7675 2018-10-07 18:50:54 20.4 38 18.2
003B7675 2018-10-07 17:42:56 20.4 38 18.2
003B7675 2018-10-07 16:35:01 20.4 38 18
003B7675 2018-10-07 15:27:01 20.4 38 18.3
003B7675 2018-10-07 14:19:03 20.4 38 18.3
003B7675 2018-10-07 13:11:10 20.4 38 18.5
003B7675 2018-10-07 12:03:14 20.4 38 18.6
003B7675 2018-10-07 10:55:17 20.4 38 18.8
003B7675 2018-10-07 09:47:21 20.4 38 18.8
003B7675 2018-10-07 08:39:27 20.4 39 18.7
003B7675 2018-10-07 07:31:28 20.4 39 19
003B7675 2018-10-07 06:23:32 20.4 39 18.9
003B7675 2018-10-07 05:15:36 20.4 39 18.9
003B7675 2018-10-07 04:07:42 20.5 39 19.2
003B7675 2018-10-07 02:59:47 20.6 40 19.2
003B7675 2018-10-07 01:51:49 20.6 40 19.5
003B7675 2018-10-07 00:43:51 20.6 40 16.9
003B7675 2018-10-06 23:35:53 20.6 40 16.8
003B7675 2018-10-06 22:27:57 20.6 40 16.8
003B7675 2018-10-06 21:20:03 20.6 40 17
003B7675 2018-10-06 20:12:06 20.6 40 16.9
003B7675 2018-10-06 19:04:16 20.6 40 16.9
003B7675 2018-10-06 17:56:19 20.6 40 16.9
003B7675 2018-10-06 16:48:18 20.6 40 17.1
003B7675 2018-10-06 15:40:21 20.6 40 17.2
003B7675 2018-10-06 14:32:23 20.6 40 17.4
003B7675 2018-10-06 13:24:29 20.6 40 17.2
003B7675 2018-10-06 12:16:35 20.6 40 17.3
003B7675 2018-10-06 11:08:38 20.6 40 17.1
003B7675 2018-10-06 10:00:42 20.7 40 17.3
003B7675 2018-10-06 08:52:48 20.7 40 17.1
003B7675 2018-10-06 07:44:56 20.8 40 17
003B7675 2018-10-06 06:37:03 20.8 41 16.8
003B7675 2018-10-06 05:29:10 20.8 41 17.1
003B7675 2018-10-06 04:21:17 20.8 42 17.4
003B7675 2018-10-06 03:13:19 20.9 42 16.5
003B7675 2018-10-06 02:05:22 21 42 16.6
003B7675 2018-10-06 00:57:24 21 43 17
003B7675 2018-10-05 23:49:29 21 43 15.8
003B7675 2018-10-05 22:41:33 21 43 16.3
003B7675 2018-10-05 21:33:34 21.1 44 13.9
003B7675 2018-10-05 20:25:36 21.3 44 14.1
003B7675 2018-10-05 19:17:41 21.3 45 13.6
003B7675 2018-10-05 18:09:46 21.4 45 14.6
003B7675 2018-10-05 17:01:55 21.5 46 10.8
003B7675 2018-10-05 15:54:02 21.5 46 12.1
003B7675 2018-10-05 14:46:07 21.7 57 0